STARLINK-3762, 52374

Orbit data source: Space-Track

STARLINK-3762, 52374 is a payload satellite owned by SpaceX/Seattle (US) in LEO that was launched on Fri, 29 Apr 2022 UTC via an FALCON 9 launch vehicle from the Air Force Eastern Test Range (AFETR). Payload-class satellites include a variety of spacecraft equipped with specific instruments for various scientific and technological missions. These include communications satellites like Starlink; space stations such as the ISS; scientific satellites like the Hubble; Earth observation satellites from companies like Planet Labs, Umbra, and HawkEye 360; GPS; miniature CubeSats for education and research; and military/defense satellites.

Loading next visibility...
Identifier
52374, 2022-045AV
Orbit
LEO
Country
Flag of USUS
Related business
Manufacturer
SpaceX/Seattle
Mission
Operational Commercial Communications
Bus & Motor
STARLINK, Unknown motor
Mass
297 kg wet, ~275 kg dry
Launch date (UTC)
2022-04-29 (4 years ago)
Launch vehicle
FALCON 9
Launch site
Air Force Eastern Test Range (AFETR)
Object type
Payload
Rocket body
Debris
Shape & HBR
Box + 1 Pan, 10.1 m
Radar Cross Section
11.087 m², Large (>1 m²)

Expand to show TLE details & history
Last TLE update: 10 hours ago

TLE from 10 hours ago
0 STARLINK-3762
1 52374U 22045AV  26119.82349600  .00000670  00000-0  60158-4 0  9992
2 52374  53.2177 319.5735 0001338  83.0315 277.0830 15.08844223223647
Epoch: 2026-04-29T19:45Z
TLE epoch observation values (Epoch: 2026-04-29T19:45:50.054Z)
Latitude
0.00004°
Longitude
165.33604°
Altitude
540.514 km
Speed
7.593 km/s
True Right ascension
21h 18m 17s
True Declination
0° 00' 00"
Sunlit
Object was in daylight at epoch
Visualization orbit readout
Latitude
Unknown
Longitude
Unknown
Altitude
Unknown
Speed
Unknown
Apparent Right ascension
Unknown
Apparent Declination
Unknown
Sunlit
N/A
Visualization observer readout
Local Sidereal Time
12:59:37
Azimuth
Unknown
Elevation
Unknown
Doppler factor
Unknown
Orbital elements
Apogee altitude
540.901 km
Perigee altitude
539.05 km
Semi-major axis
6,918.112 km
Eccentricity
0.00013
Inclination
53.2177°
RAAN
319.5735°
Arg. of periapsis
83.0315°
True anomaly
277.06778°
Mean anomaly
277.083°
Eccentric anomaly
277.07539°
Mean motion
3.77191 °/min
Orbital period
95.44 mins
BSTAR
0.000060158
Loading maneuver chart data...
Computing Atmospheric mass density...
Loading historical data...
Loading historical data...
Loading historical data...
Loading historical data...
Loading historical data...
Loading historical data...
Loading historical data...

Documentation

Showing up to 5 results
|